This is the latest recevied weather packets stored in our database for station/object KF0EZB. If no packets are shown the sender has not sent any weather packets the latest 10 day(s).
| Time | Temp. | Humidity | Pressure | Rain* | Wind** | Luminosity | Snow |
|---|---|---|---|---|---|---|---|
| 1777730280 | 10° C | 55% | 1022.6 hPa | 0 mm | - | 280 W/m² | - |
| 1777729977 | 9.44° C | 56% | 1022.4 hPa | 0 mm | - | 296 W/m² | - |
| 1777729673 | 9.44° C | 58% | 1022.3 hPa | 0 mm | - | 267 W/m² | - |
| 1777729370 | 9.44° C | 58% | 1022.4 hPa | 0 mm | - | 253 W/m² | - |
| 1777729066 | 8.89° C | 60% | 1022.4 hPa | 0 mm | - | 247 W/m² | - |
| 1777728763 | 8.89° C | 61% | 1022.3 hPa | 0 mm | - | 219 W/m² | - |
| 1777728460 | 8.89° C | 62% | 1022.3 hPa | 0 mm | - | 193 W/m² | - |
| 1777728157 | 8.33° C | 64% | 1022.3 hPa | 0 mm | - | 186 W/m² | - |
| 1777727854 | 7.78° C | 67% | 1022.4 hPa | 0 mm | - | 157 W/m² | - |
| 1777727551 | 7.78° C | 70% | 1021.9 hPa | 0 mm | - | 147 W/m² | - |
| 1777727248 | 7.78° C | 73% | 1022.4 hPa | 0 mm | - | 135 W/m² | - |
| 1777726946 | 7.22° C | 75% | 1022 hPa | 0 mm | - | 118 W/m² | - |
| 1777726642 | 7.22° C | 76% | 1021.8 hPa | 0 mm | - | 102 W/m² | - |
| 1777726340 | 6.67° C | 77% | 1021.9 hPa | 0 mm | - | 91 W/m² | - |
| 1777726036 | 6.67° C | 79% | 1021.7 hPa | 0 mm | - | 79 W/m² | - |
| 1777725733 | 6.11° C | 80% | 1021.8 hPa | 0 mm | - | 70 W/m² | - |
| 1777725432 | 5.56° C | 81% | 1021.9 hPa | 0 mm | - | 52 W/m² | - |
| 1777725128 | 5.56° C | 81% | 1021.8 hPa | 0 mm | - | 46 W/m² | - |
| 1777724825 | 5.56° C | 82% | 1021.6 hPa | 0 mm | - | 40 W/m² | - |
| 1777724521 | 5.56° C | 83% | 1021.6 hPa | 0 mm | - | 34 W/m² | - |
| 1777724220 | 5° C | 85% | 1021.2 hPa | 0 mm | - | 30 W/m² | - |
| 1777723917 | 5° C | 86% | 1021.3 hPa | 0 mm | - | 25 W/m² | - |
| 1777723613 | 4.44° C | 87% | 1021.2 hPa | 0 mm | - | 21 W/m² | - |
| 1777723310 | 4.44° C | 87% | 1021.2 hPa | 0 mm | - | 16 W/m² | - |
| 1777723008 | 4.44° C | 88% | 1021.1 hPa | 0 mm | - | 12 W/m² | - |
* Rain latest hour (hover to see other rain measurements)
** Current wind speed in m/s (hover to see current wind gust speed)